Volver al catálogo

NAVSTAR 33

USA 92

ActivoNavegaciónMEO
NORAD 22700·PAYLOAD·🇺🇸 United States

Lanzado Jun 26, 1993 desde Cape Canaveral Space Force Station

Loading…

Próximos Pases (próximas 24 horas)

TLE

EnvejeciendoSource: Space-Track

Época: Aug 29, 2026, 05:01 UTC

1 22700U 93042A   26241.20921500  .00000025  00000-0  00000+0 0  9999
2 22700  54.7137 166.4280 0013035  35.9107  74.2466  1.89431900238517

Sigue NAVSTAR 33 en tiempo real con AllMySat

Download on the App Store